Regional Weather Roundup
Issued by NWS Kansas City/Pleasant Hill, MO

Home | Current Version | Previous Version | Graphics & Text | Print | Product List | Glossary Off
Versions: 1 2 3 4 5 6 7 8 9 10 11 12 13 14 15 16 17 18 19 20 21 22 23 24 25 26 27

000
ASUS43 KEAX 241810
RWREAX

WEATHER ROUNDUP FOR EASTERN KANSAS AND NORTHWEST MISSOURI
NATIONAL WEATHER SERVICE KANSAS CITY/PLEASANT HILL MO
100 PM CDT FRI MAR 24 2017

KSZ040-057-103>105-MOZ028-029-037-043-241900-
...KANSAS CITY METROPOLITAN AREA...

CITY           SKY/WX    TMP DP  RH WIND       PRES   REMARKS
K.C. INTL      CLOUDY    63  56  78 CALM      29.87F
6HR MIN TEMP:  60; 6HR MAX TEMP:  69; 6HR PCP:  0.10;

K.C. DOWNTOWN  CLOUDY    66  57  72 S6        29.85F
6HR MIN TEMP:  61; 6HR MAX TEMP:  70; 6HR PCP:  0.08;

LEES SUMMIT    CLOUDY    67  55  65 SW14      29.86F
6HR MIN TEMP:  63; 6HR MAX TEMP:  70; 6HR PCP:  0.04;

OLATHE - IXD   CLOUDY    67  55  65 S17G26    29.86S
6HR MIN TEMP:  61; 6HR MAX TEMP:  69; 6HR PCP:  0.13;

OLATHE - OJC   CLOUDY    67  55  65 S15G24    29.85F
6HR MIN TEMP:  62; 6HR MAX TEMP:  67; 6HR PCP:  0.06;

LAWRENCE       CLOUDY    67  57  70 S10       29.84F

$$

MOZ001>008-011>017-020>025-030>033-038>040-044>046-053-054-241900-
...NORTHERN AND CENTRAL MISSOURI...

CITY           SKY/WX    TMP DP  RH WIND       PRES   REMARKS
ST. JOSEPH     LGT RAIN  58  56  93 E9        29.89R FOG
6HR MIN TEMP:  56; 6HR MAX TEMP:  68; 6HR PCP:  0.33;

MOSBY          CLOUDY    61  54  77 SW7       29.89R
WARRENSBURG    CLOUDY    64  52  63 S15G23    29.88S
WHITEMAN AFB   CLOUDY    64  57  78 SW20G32   29.88R
6HR MIN TEMP:  58; 6HR MAX TEMP:  71; 6HR PCP:  0.02;

CLINTON        CLOUDY    68  50  52 S20G26    29.90S
SEDALIA          N/A     71  47  42 S17G26    29.91S THUNDER
6HR MIN TEMP:  64; 6HR MAX TEMP:  74; 6HR PCP: TRACE;

WARSAW         NOT AVBL
CHILLICOTHE      N/A     65  48  54 W7        29.92R
6HR MIN TEMP:  60; 6HR MAX TEMP:  69;

KIRKSVILLE     LGT RAIN  60  50  70 SW9       29.93S
6HR MIN TEMP:  60; 6HR MAX TEMP:  72; 6HR PCP: TRACE;


$$

MOZ041-047>049-056>058-063>065-088>090-097-241900-
...EASTERN AND SOUTHERN MISSOURI...

CITY           SKY/WX    TMP DP  RH WIND       PRES   REMARKS
ST. LOUIS INTL PTSUNNY   79  54  41 S22G31    29.98S
6HR MIN TEMP:  54; 6HR MAX TEMP:  79;

SPIRIT OF STL  PTSUNNY   79  53  40 S10G23    29.95F
COLUMBIA       CLOUDY    72  51  47 S22G28    29.93S
JEFFERSON CITY CLOUDY    74  51  44 S18G24    29.93S
ROLLA          CLOUDY    71  52  50 S26G32    29.97S
OSAGE BEACH    CLOUDY   N/A N/A N/A S24G32    29.96R
SPRINGFIELD    CLOUDY    63  57  81 S14       29.95S
BRANSON        CLOUDY    68  50  52 S17G31    29.99F
JOPLIN         CLOUDY    65  56  72 S25G37    29.89S
WEST PLAINS    PTSUNNY   70  54  56 S18G28    30.04F

$$

IAZ060-094-KSZ022-034>040-054-083-096-NEZ052-066-093-241900-
...KANSAS...SOUTHEAST NEBRASKA AND IOWA...

CITY           SKY/WX    TMP DP  RH WIND       PRES   REMARKS
TOPEKA         PTSUNNY   68  55  63 S14       29.82F
6HR MIN TEMP:  63; 6HR MAX TEMP:  69; 6HR PCP:  0.04;

MANHATTAN      CLOUDY    71  51  49 SW8       29.79S
EMPORIA        CLOUDY    69  55  60 S18       29.80S
CHANUTE        CLOUDY    67  55  65 S24G32    29.85S
WICHITA        MOSUNNY   74  40  29 S17       29.75F
OMAHA          CLOUDY    47  43  86 N14       29.93R FOG
LINCOLN        CLOUDY    47  43  86 NE18G26   29.94R
FALLS CITY     CLOUDY    61  54  77 SE9       29.85S
LAMONI         LGT RAIN  56  53  90 S5        29.90F
DES MOINES     LGT RAIN  49  46  90 N9        29.95R FOG

$$





USA.gov is the U.S. government's official web portal to all federal, state and local government web resources and services.